Regional Weather Roundup
Issued by NWS

Home | Current Version | Previous Version | Graphics & Text | Print | Product List | Glossary On
Versions: 1 2 3 4 5 6 7 8 9 10 11 12 13 14 15 16 17 18 19 20 21 22 23 24 25 26 27 28 29 30 31 32 33 34 35 36 37 38 39 40 41 42 43 44 45 46 47 48 49 50
000
ASUS43 KLOT 060800
RWRIL

ILLINOIS REGIONAL WEATHER ROUNDUP
NATIONAL WEATHER SERVICE CHICAGO/ROMEOVILLE IL
200 AM CST FRI MAR 06 2015

NOTE: "FAIR" INDICATES FEW OR NO CLOUDS BELOW 12,000 FEET WITH NO
SIGNIFICANT WEATHER AND/OR OBSTRUCTIONS TO VISIBILITY.

* THESE STATIONS ARE NOT UNDER NWS QUALITY CONTROL. THEY ALSO MAY NOT
  REPORT WEATHER SUCH AS PRECIPITATION OR FOG.

ILZ001-002-007-009-015-016-024-060900-
NORTHWEST ILLINOIS

CITY           SKY/WX    TMP DP  RH WIND       PRES   REMARKS
MOLINE         MOCLDY     3  -5  69 E3        30.49F
STERLING*      MOCLDY    -8 -11  84 CALM      30.49S
$$

ILZ003-004-008-010-011-017-018-060900-
NORTH CENTRAL ILLINOIS

CITY           SKY/WX    TMP DP  RH WIND       PRES   REMARKS
ROCKFORD       PTCLDY    -3  -9  75 CALM      30.49F
FREEPORT*      MOCLDY    -8 -13  77 CALM      30.48S
DE KALB*       MOCLDY    -4 -10  77 S6        30.48S WCI -16
$$

ILZ005-006-012>014-019>023-060900-
NORTHEAST ILLINOIS

CITY           SKY/WX    TMP DP  RH WIND       PRES   REMARKS
CHICAGO-OHARE  PTCLDY     5  -4  66 SW5       30.50S WCI  -4
CHICAGO-MIDWAY CLEAR      7  -2  66 S6        30.52S WCI  -3
AURORA         PTCLDY    -4  -9  79 CALM      30.51S
LANSING*       CLEAR     -2  -6  82 S5        30.53S WCI -12
WAUKEGAN       PTCLDY    -3  -8  79 CALM      30.47F
DUPAGE AIRPORT PTCLDY     0  -6  76 SW5       30.49S WCI -10
WHEELING       PTCLDY     6  -4  63 SW3       30.51F
NORTHERLY ISL    N/A     10   1  67 SW5         N/A  WCI   2
$$

LMZ740>746-060900-
SOUTHERN LAKE MICHIGAN

STATION/POSITION SKY/WX   TEMP    WIND        PRES    VSBY  WAVE
                          AIR SEA DIR/SP/G                  HT/PER
                          (F)     (DEG/KT/KT) (MB)    (MI)  (FT/S)
WAUKEGAN HARBOR             6                   N/A
HARRISON CRIB              10     260/ 11/ 14   N/A
BURNHAM HARBOR             10     240/  4/ 12   N/A
CALUMET HARBOR              8     220/  4/  5 1032.2F
MICHIGAN CITY               8     180/  9/ 10   N/A
$$

ILZ025>027-034>036-040-047-049-050-058-095>099-060900-
WEST-CENTRAL ILLINOIS

CITY           SKY/WX    TMP DP  RH WIND       PRES   REMARKS
QUINCY         CLEAR      9  -1  64 S8        30.49F WCI  -3
MACOMB*        PTCLDY     3  -2  81 S7        30.53F WCI -10
$$

ILZ028>032-037-038-041>044-048-051>054-059>061-060900-
CENTRAL ILLINOIS

CITY           SKY/WX    TMP DP  RH WIND       PRES   REMARKS
DECATUR        PTCLDY    -8 -13  78 CALM      30.55F
PEORIA         MOCLDY     5  -2  72 S3        30.53F
SPRINGFIELD    PTCLDY     2  -3  80 S6        30.55F WCI  -9
TAYLORVILLE    NOT AVBL
$$

ILZ033-039-045-046-055>057-062-063-060900-
EAST-CENTRAL ILLINOIS

CITY           SKY/WX    TMP DP  RH WIND       PRES   REMARKS
CHAMPAIGN      PTCLDY    -4  -6  91 S7        30.54F WCI -18
MATTOON        PTCLDY     0  -5  79 CALM      30.55S
$$

ILZ079-100>102-060900-
SOUTHWEST ILLINOIS

CITY           SKY/WX    TMP DP  RH WIND       PRES   REMARKS
BELLEVILLE     CLEAR     11   8  87 CALM      30.58S
CAHOKIA*       FAIR      15   7  70 SE7       30.58F WCI   5
$$

ILZ064>066-069>071-074>076-080>082-084>086-088>090-092>094-060900-
SOUTH-CENTRAL ILLINOIS

CITY           SKY/WX    TMP DP  RH WIND       PRES   REMARKS
CARBONDALE     MOCLDY     3  -1  83 CALM      30.60S
MT. VERNON     PTCLDY     3  -4  72 CALM      30.58F
$$

ILZ067-068-072-073-078-083-087-091-060900-
SOUTHEAST ILLINOIS

CITY           SKY/WX    TMP DP  RH WIND       PRES   REMARKS
LAWRENCEVILLE  PTCLDY     5   1  83 CALM      30.60S
$$

ABBREVIATIONS USED IN REMARKS
   TC - TEMPERATURE IN CELSIUS
  WCI - WIND CHILL INDEX
   HX - HEAT INDEX
  VSB - VISIBILITY
$$




USA.gov is the U.S. government's official web portal to all federal, state and local government web resources and services.